PAKSAT-1R

Last updated on Jan. 28, 2020, 4:41 a.m. UTC

1 37779U 11042A   20027.86083361  .00000150  00000-0  00000-0 0  9993
2 37779   0.0149 199.3036 0002919 123.7551 151.4437  1.00271255 31096
UTC
Height (km)
Latitude
Longitude
Inclination
Orbital Period
UTC large
Height (km)
Speed (km/s)
/
Latitude / Longitude
Inclination (degrees)
Orbital Period (minutes)
Azimuth
Elevation
Range (km)
Doppler Factor
iOS Compass Heading
iOS Angle

Next 30 passes for location: Hong Kong

Rise time Rise Azimuth (degrees) Set time Set Azimuth (degrees) Duration Max altitude (degrees)

No matching passes for this satellites